Probability
0 0 0 0 0 0 0 0 0 0 0 0 0 0 0 0 0 0 0 0 0 0 0 0 0 0 0 0 0 0 0 0 0 0 0 0 0 0 0 0 0 0 0
0 0 0 0 0 0 0 0 0 0 0 0 0 0 0 0 0 0 0 0 0 0 0 0 0 0 0 0 0 0 0 0 0 0 0 0 0 0 0 0 0 0 0
0 0 0 0 0 0 0 0 0 0 0 0 0 0 0 0 0 0 0 0 0 0 0 0 0 0 0 0 0 0 0 0 0 0 0 0 0 0 0 0 0 0 0
0 0 0 0 0 0 0 0 0 0 0 0 0 0 0 0 0 0 0 0 0 0 0 0 0 0 0 0 0 0 0 0 0 0 0 0 0 0 0 0 0 0 0
1 0 0 0 0 0 0 0 0 0 0 0 0 0 0 0 0 0 0 0 0 0 0 0 0 0 0 0 0 0 0 0 0 0 0 0 0 0 0 0 0 0 0
2 1 0 0 0 0 0 0 0 0 0 0 0 0 0 0 0 0 0 0 0 0 0 0 0 0 0 0 0 0 0 0 0 0 0 0 0 0 0 0 0 0 0
3 2 1 0 0 0 0 0 0 0 0 0 0 0 0 0 0 0 0 0 0 0 0 0 0 0 0 0 0 0 0 0 0 0 0 0 0 0 0 0 0 0 0
3 3 2 1 1 1 1 1 0 0 0 0 0 0 0 0 0 0 0 0 0 0 0 0 0 0 0 0 0 0 1 0 0 0 0 0 0 0 0 0 0 0 0
1 2 1 1 2 2 2 2 1 0 0 0 0 0 0 0 0 0 0 0 0 0 0 0 0 0 0 0 0 0 0 0 0 0 0 0 0 0 0 0 0 0 0
0 0 1 2 3 3 3 3 1 1 0 0 0 0 0 0 0 0 0 0 0 0 0 0 0 0 0 0 0 0 0 0 0 0 0 0 0 0 0 0 0 0 0
0 0 0 1 2 3 3 3 3 2 1 0 0 0 0 0 0 0 0 0 0 0 0 0 0 0 0 0 0 0 0 0 0 0 0 0 0 0 1 0 0 0 0
0 0 0 0 1 2 3 3 3 3 1 1 0 0 0 0 0 0 0 0 0 0 0 0 0 0 0 0 0 0 0 0 0 0 0 0 0 0 0 0 0 0 0
0 0 0 0 0 1 2 2 2 2 2 2 1 0 0 0 0 0 0 0 0 0 0 0 0 0 0 0 0 0 0 0 0 0 0 0 0 0 0 0 0 0 0
0 0 0 0 0 0 1 1 1 1 2 2 1 0 0 0 0 0 0 0 0 0 0 0 0 0 0 0 0 0 0 0 0 0 0 0 0 0 0 0 0 0 0
0 0 0 0 0 0 0 0 0 0 1 1 1 0 0 0 0 0 0 0 0 0 0 0 0 0 0 0 0 0 0 0 0 0 0 0 0 0 0 0 0 0 0
0 0 0 0 0 0 0 0 0 0 0 0 0 0 0 0 0 0 0 0 0 0 0 0 0 0 0 0 0 0 0 0 0 0 0 0 0 0 0 0 0 0 0
0 0 0 0 0 0 0 0 0 0 0 0 0 0 0 0 0 0 0 0 0 0 0 0 0 0 0 0 0 0 0 0 0 0 0 0 0 0 0 0 0 0 0
0 0 0 0 0 0 0 0 0 0 0 0 0 0 0 0 0 0 0 0 0 0 0 0 0 0 0 0 0 0 0 0 0 0 0 0 0 0 0 0 0 0 0
0 0 0 0 0 0 0 0 0 0 0 0 0 0 0 0 0 0 0 0 0 0 0 0 0 0 0 0 0 0 0 0 0 0 0 0 0 0 0 0 0 0 0
0 0 0 0 0 0 0 0 0 0 0 0 0 0 0 0 0 0 0 0 0 0 0 0 0 0 0 0 0 0 0 0 0 0 0 0 0 0 0 0 0 0 0
0 0 0 0 0 0 0 0 0 0 0 0 0 0 0 0 0 0 0 0 0 0 0 0 0 0 0 0 0 0 0 0 0 0 0 0 0 0 0 0 0 0 0
0 0 0 0 0 0 0 0 0 0 0 0 0 1 1 1 0 0 0 0 0 0 0 0 0 0 0 0 0 0 0 0 0 0 0 0 0 0 0 0 0 0 0
0 0 0 0 0 0 0 0 0 0 0 0 0 1 2 2 1 1 0 0 0 0 0 0 0 0 0 0 0 0 0 0 0 0 0 0 0 0 0 0 0 0 0
0 0 0 0 0 0 0 0 0 0 0 0 0 1 1 2 2 1 0 0 0 0 0 0 0 0 0 0 0 0 0 0 0 0 0 0 0 0 0 0 0 0 0
0 0 0 0 0 0 0 0 0 0 0 0 0 0 0 1 1 1 0 0 0 0 0 0 0 0 0 0 0 0 0 0 0 0 0 0 0 0 0 0 0 0 0
0 0 0 0 0 0 0 0 0 0 0 0 0 0 0 0 0 0 0 0 0 0 0 0 0 0 0 0 0 0 0 0 0 0 0 0 0 0 0 0 0 0 0
Wind_Speed
2 2 1 1 1 2 2 2 2 2 2 2 2 3 3 4 3 3 2 6 7 7 7 8 8 8 9 8 8 8 8 8 7 7 6 6 6 6 6 6 6 6 5
3 2 2 1 1 1 1 1 1 2 1 1 2 3 3 3 3 3 2 3 6 7 7 8 8 8 9 9 9 8 8 8 7 7 6 6 6 6 6 6 6 5 5
4 3 2 2 2 1 2 2 2 2 1 1 1 2 2 3 3 4 3 2 3 5 7 7 8 8 9 9 9 9 8 8 7 7 7 6 6 6 6 6 6 6 5
5 4 3 3 2 2 2 2 1 1 1 1 1 1 1 2 3 3 3 3 2 2 5 8 8 8 9 9 10 9 9 9 8 8 8 7 7 7 7 7 7 6 6
6 4 3 3 3 2 2 2 1 1 1 1 1 1 1 1 2 3 4 4 4 3 3 4 7 7 9 9 10 9 9 9 9 9 9 9 8 8 7 7 7 7 7
6 5 3 4 3 3 2 2 2 1 1 1 1 0 0 1 2 3 4 3 4 4 4 4 3 5 8 9 9 9 9 9 9 9 9 10 10 9 8 8 8 8 8
6 5 4 4 4 4 4 4 2 2 1 1 1 1 1 1 2 3 3 3 4 5 4 5 3 3 3 6 7 7 9 9 9 9 9 9 9 9 9 9 9 8 8
6 6 5 5 4 3 4 4 3 2 1 2 2 1 1 2 2 2 2 3 4 4 5 5 5 5 4 3 4 7 8 9 9 9 9 9 9 8 8 9 9 8 8
6 5 6 5 5 5 4 5 5 5 3 2 2 3 3 3 2 2 1 2 3 3 4 3 5 5 5 4 4 5 7 7 8 9 9 9 9 9 9 9 9 8 8
5 6 6 6 6 5 5 5 5 4 4 3 2 1 2 3 2 1 1 1 1 2 3 3 3 4 4 3 4 5 6 6 7 7 7 7 7 7 7 8 8 7 6
4 5 5 5 5 5 5 5 5 5 4 4 3 2 2 1 2 2 1 1 1 1 1 2 2 2 2 3 3 4 5 4 4 4 4 4 4 4 4 4 5 4 4
3 4 5 5 5 5 5 5 5 6 4 4 3 3 3 3 3 3 3 2 1 1 1 0 1 1 1 1 2 2 2 2 1 1 1 2 3 3 3 2 1 2 2
3 5 5 4 4 5 5 5 5 5 5 5 5 4 3 3 3 3 3 2 1 0 1 1 1 1 0 0 1 3 4 4 4 5 5 6 6 7 7 7 7 7 6
4 4 5 4 4 5 5 4 4 4 4 5 5 4 3 3 3 3 4 4 2 0 1 1 2 2 1 2 3 4 5 8 7 7 8 9 9 10 9 9 9 9 9
3 4 4 4 4 4 4 5 4 4 4 4 4 4 3 3 3 3 3 4 4 3 1 1 1 3 2 3 5 5 6 10 11 11 11 11 11 11 11 11 11 11 10
3 3 4 4 3 3 3 4 3 4 4 4 3 3 3 2 2 2 3 3 3 3 2 1 2 3 4 5 8 6 8 12 13 12 12 12 13 13 12 12 11 11 11
3 4 4 4 4 3 3 4 4 4 4 3 3 3 3 3 2 2 2 2 2 3 4 2 2 3 4 6 6 6 6 6 8 13 13 13 13 13 13 12 12 11 11
2 3 3 3 3 3 3 4 4 3 4 3 3 3 3 2 2 2 2 3 3 3 4 5 3 3 4 5 6 6 6 7 7 13 14 14 13 13 12 12 11 11 10
2 3 3 3 3 3 3 3 4 3 3 3 3 3 3 3 3 2 3 3 3 4 4 6 5 3 3 4 5 7 8 6 7 9 12 13 13 12 12 11 10 10 8
3 3 3 3 3 3 3 4 4 4 4 3 3 3 3 3 3 4 4 4 5 6 6 6 6 4 3 3 4 5 5 5 6 6 8 9 11 12 11 10 10 9 8
3 2 3 3 3 3 3 5 5 5 5 5 4 4 4 6 6 5 5 5 6 6 6 6 6 5 4 3 3 2 5 4 5 5 4 5 5 5 6 8 8 8 7
3 3 3 4 3 3 6 8 7 5 5 5 5 5 6 7 10 11 12 11 9 8 8 6 5 5 4 3 3 4 4 3 3 3 3 4 4 4 4 4 7 8 7
4 5 4 5 5 5 8 9 10 7 6 5 5 5 5 7 9 9 13 15 14 13 10 7 8 5 4 3 4 5 4 4 3 1 2 3 3 3 3 4 8 8 8
5 4 5 5 6 6 9 10 11 8 7 6 6 6 7 6 7 10 11 11 10 9 8 7 7 6 5 4 4 5 5 5 4 3 2 3 2 2 2 3 7 8 8
5 5 5 5 6 6 9 10 9 7 7 7 7 7 8 8 11 13 12 12 11 9 12 15 14 12 12 10 7 6 5 5 4 3 3 2 2 2 2 2 4 8 8
6 6 6 5 6 6 7 9 9 6 7 7 6 7 9 9 10 11 10 11 11 7 8 9 10 10 9 9 9 5 4 4 3 2 2 2 2 1 1 2 3 4 5
Wind_Direction
158 144 131 119 117 113 114 108 99 105 113 116 133 145 152 157 161 158 171 180 176 173 174 174 172 171 169 168 167 166 166 164 161 162 163 163 162 161 162 157 160 163 159
168 163 162 161 157 139 125 121 118 113 116 121 137 148 158 165 168 169 178 193 190 184 186 187 184 183 182 181 181 181 180 178 176 177 178 177 177 175 173 171 171 170 170
174 174 177 191 193 161 135 116 107 103 123 125 132 151 161 175 178 182 184 192 200 200 197 197 196 196 196 195 194 193 190 187 187 189 189 189 191 188 186 186 187 186 185
178 176 184 201 190 160 144 141 135 124 127 135 149 172 162 175 190 195 193 195 197 206 210 208 207 208 210 208 206 202 199 197 199 200 199 200 202 200 199 200 200 198 198
183 178 188 195 176 163 159 170 149 153 162 162 176 180 181 194 205 208 205 204 205 207 214 226 221 216 219 221 217 212 210 208 207 209 210 210 210 208 209 209 210 211 211
185 178 186 186 172 167 173 168 154 141 145 156 162 98 327 243 224 228 225 214 213 218 220 226 227 230 232 234 229 222 218 219 217 218 219 220 217 215 215 215 218 219 221
186 182 188 177 176 183 188 175 153 153 150 133 102 25 346 299 237 232 227 220 221 222 221 222 220 224 235 244 242 235 229 226 223 222 223 226 225 221 219 220 222 224 226
186 190 184 183 182 181 182 179 165 155 161 156 145 121 349 334 310 247 222 220 226 220 225 225 218 219 222 232 239 240 237 237 235 229 224 225 226 225 224 223 224 225 226
189 187 186 184 183 184 191 192 180 172 176 178 167 153 161 226 297 316 261 236 225 219 227 224 221 224 224 228 237 246 248 244 242 237 228 227 226 224 224 226 227 230 231
195 187 184 185 186 187 190 196 188 182 166 178 182 185 172 161 165 295 325 305 239 228 230 225 223 222 222 224 231 234 242 244 246 245 235 229 227 226 225 223 227 230 226
198 189 185 188 189 190 195 196 186 186 180 179 177 171 163 143 153 168 252 315 360 312 250 232 234 231 224 224 231 233 229 233 241 246 242 231 222 212 206 210 217 221 215
196 194 189 192 196 195 195 198 196 190 191 185 183 181 174 172 183 177 195 222 241 334 12 19 241 242 229 207 206 166 178 188 192 156 111 110 117 123 133 139 147 136 138
197 201 195 195 199 198 198 193 191 195 193 191 193 199 199 200 167 165 168 180 191 262 24 42 11 352 45 109 118 107 94 98 97 95 93 91 90 89 90 86 80 78 74
201 193 193 197 200 195 197 190 191 200 196 199 204 199 200 205 186 176 169 159 158 155 57 38 37 30 38 69 76 88 85 86 90 92 92 90 88 84 83 83 79 76 73
198 190 189 192 196 193 193 186 190 198 191 198 204 203 204 208 198 196 178 170 163 176 193 52 52 30 45 72 74 85 84 85 87 87 87 86 85 84 82 80 77 74 73
190 180 183 185 189 194 195 190 187 190 188 201 198 194 205 209 199 194 189 184 173 162 152 83 60 44 52 75 76 81 83 85 84 87 87 86 86 85 83 81 79 76 72
178 179 183 180 183 189 186 184 192 183 184 192 192 191 208 195 183 188 176 160 153 139 140 114 67 55 60 72 70 76 80 79 80 81 85 86 85 84 82 80 77 74 72
168 173 170 168 176 176 174 176 184 176 171 180 187 178 195 185 171 165 154 151 146 140 138 135 110 74 68 78 80 80 78 80 83 79 81 83 84 84 82 80 78 74 69
151 153 155 167 172 166 159 158 152 146 147 156 163 167 176 161 160 147 141 138 129 123 120 127 119 88 77 78 82 78 73 70 79 80 78 77 79 80 77 75 74 70 65
139 144 156 162 160 149 143 139 130 124 119 112 110 118 134 152 155 141 131 125 121 114 112 114 111 98 87 74 85 89 80 66 67 66 66 67 68 70 69 68 69 65 59
117 125 127 119 118 125 132 133 129 125 119 107 92 87 91 105 114 120 122 123 124 119 115 113 110 103 97 96 101 100 102 92 65 51 61 54 52 53 52 51 56 55 52
87 92 101 107 103 107 120 124 125 118 113 111 104 89 82 82 90 93 99 103 114 123 127 121 115 116 117 111 108 115 119 109 82 26 53 50 43 45 37 44 42 45 41
85 82 83 92 92 98 109 113 112 110 108 108 109 104 97 90 90 93 87 83 83 90 105 121 119 121 125 136 127 114 102 91 90 58 69 57 34 45 32 34 30 32 31
92 89 86 89 91 89 99 104 102 98 95 91 92 101 105 100 102 106 99 87 79 74 86 93 105 106 108 112 114 118 114 99 79 47 41 68 26 21 17 13 17 21 21
98 92 91 94 95 90 92 99 100 98 94 87 87 95 105 106 110 110 107 102 94 84 83 89 89 89 91 95 106 108 105 103 82 48 26 65 34 359 354 355 5 13 12
103 98 87 83 90 91 89 97 103 105 102 97 89 90 99 108 110 112 114 113 108 102 98 90 81 75 76 77 80 94 115 112 101 77 31 55 41 16 12 343 340 351 357